IZ1CYF-13 Weather Reports


time (UTC)temp
C
wind
direction
speed
KPH
gust
KPH
rain 1hr
cm
rain 24hr
cm
rain mn
cm
humidity
%
barometer
mb
20260505200848 18 0.0 0.0 0.00 0.00 0.00 53 1013.7
20260505195903 17 0.0 0.0 0.00 0.00 0.00 57 1014.0
20260505194851 20 0.0 0.0 0.00 0.00 0.00 50 1013.3
20260505193848 19 0.0 0.0 0.00 0.00 0.00 52 1013.4
20260505192847 20 0.0 0.0 0.00 0.00 0.00 50 1013.2
20260505191848 17 0.0 0.0 0.00 0.00 0.00 57 1013.6
20260505190847 19 0.0 0.0 0.00 0.00 0.00 53 1013.2
20260505185851 18 0.0 0.0 0.00 0.00 0.00 56 1013.6
20260505184847 16 0.0 0.0 0.00 0.00 0.00 60 1013.7
20260505183847 17 0.0 0.0 0.00 0.00 0.00 58 1013.6
20260505182902 20 0.0 0.0 0.00 0.00 0.00 50 1012.9
20260505181847 19 0.0 0.0 0.00 0.00 0.00 52 1013.1
20260505180902 17 0.0 0.0 0.00 0.00 0.00 57 1013.5
20260505175902 15 0.0 0.0 0.00 0.00 0.00 68 1014.3
20260505174848 15 0.0 0.0 0.00 0.00 0.00 65 1014.3
20260505173903 20 0.0 0.0 0.00 0.00 0.00 51 1013.2
20260505172848 18 0.0 0.0 0.00 0.00 0.00 54 1013.4
20260505171848 16 0.0 0.0 0.00 0.00 0.00 59 1013.9
20260505170907 16 0.0 0.0 0.00 0.00 0.00 61 1013.9
20260505165848 18 0.0 0.0 0.00 0.00 0.00 55 1013.6
20260505164851 16 0.0 0.0 0.00 0.00 0.00 60 1014.0
20260505163847 17 0.0 0.0 0.00 0.00 0.00 56 1013.6
20260505162847 16 0.0 0.0 0.00 0.00 0.00 58 1013.8
20260505161851 18 0.0 0.0 0.00 0.00 0.00 54 1013.6
20260505152851 17 0.0 0.0 0.00 0.00 0.00 55 1013.7
20260505151852 17 0.0 0.0 0.00 0.00 0.00 58 1014.0
20260505150847 17 0.0 0.0 0.00 0.00 0.00 55 1013.7
20260505124848 16 0.0 0.0 0.00 0.00 0.00 57 1014.7
20260505123848 18 0.0 0.0 0.00 0.00 0.00 49 1014.1
20260505122848 18 0.0 0.0 0.00 0.00 0.00 50 1014.2
20260505121848 18 0.0 0.0 0.00 0.00 0.00 51 1014.3
20260505120849 17 0.0 0.0 0.00 0.00 0.00 55 1014.6
20260505115852 18 0.0 0.0 0.00 0.00 0.00 51 1014.3
20260505114848 18 0.0 0.0 0.00 0.00 0.00 52 1014.4
20260505113848 18 0.0 0.0 0.00 0.00 0.00 52 1014.4
20260505112848 17 0.0 0.0 0.00 0.00 0.00 55 1014.6
20260505111903 16 0.0 0.0 0.00 0.00 0.00 56 1014.8
20260505110853 17 0.0 0.0 0.00 0.00 0.00 53 1014.6
20260505101848 18 0.0 0.0 0.00 0.00 0.00 47 1014.6
20260505100849 18 0.0 0.0 0.00 0.00 0.00 46 1014.4
20260505095848 20 0.0 0.0 0.00 0.00 0.00 42 1014.2
20260505094848 20 0.0 0.0 0.00 0.00 0.00 41 1014.2
20260505093903 18 0.0 0.0 0.00 0.00 0.00 46 1014.7
20260505092848 17 0.0 0.0 0.00 0.00 0.00 48 1014.8
20260505091849 16 0.0 0.0 0.00 0.00 0.00 51 1015.1
20260505090848 15 0.0 0.0 0.00 0.00 0.00 53 1015.2
20260505085848 17 0.0 0.0 0.00 0.00 0.00 49 1014.7
20260505084848 16 0.0 0.0 0.00 0.00 0.00 50 1014.9
20260505083903 19 0.0 0.0 0.00 0.00 0.00 43 1014.1
20260505082848 18 0.0 0.0 0.00 0.00 0.00 46 1014.5
20260505081908 18 0.0 0.0 0.00 0.00 0.00 44 1014.2
20260505080919 20 0.0 0.0 0.00 0.00 0.00 43 1014.0
20260505075904 17 0.0 0.0 0.00 0.00 0.00 51 1014.8
20260505074848 18 0.0 0.0 0.00 0.00 0.00 47 1014.7
20260505073848 18 0.0 0.0 0.00 0.00 0.00 48 1014.6
20260505072849 16 0.0 0.0 0.00 0.00 0.00 51 1015.0
20260505071849 18 0.0 0.0 0.00 0.00 0.00 47 1014.6
20260505070904 17 0.0 0.0 0.00 0.00 0.00 49 1015.0
20260505065848 18 0.0 0.0 0.00 0.00 0.00 46 1014.6
20260505064849 18 0.0 0.0 0.00 0.00 0.00 46 1014.5
20260505063849 17 0.0 0.0 0.00 0.00 0.00 48 1014.6
20260505062849 15 0.0 0.0 0.00 0.00 0.00 53 1015.3
20260505061848 17 0.0 0.0 0.00 0.00 0.00 49 1014.8
20260505060848 15 0.0 0.0 0.00 0.00 0.00 53 1015.2
20260505055850 17 0.0 0.0 0.00 0.00 0.00 53 1014.5
20260505054849 18 0.0 0.0 0.00 0.00 0.00 51 1014.4
20260505053852 15 0.0 0.0 0.00 0.00 0.00 55 1015.2
20260505052849 18 0.0 0.0 0.00 0.00 0.00 49 1014.2
20260505051920 18 0.0 0.0 0.00 0.00 0.00 45 1014.1
20260505050849 18 0.0 0.0 0.00 0.00 0.00 48 1014.2
20260505040905 17 0.0 0.0 0.00 0.00 0.00 53 1014.7
20260505035853 15 0.0 0.0 0.00 0.00 0.00 63 1015.6
20260505034853 16 0.0 0.0 0.00 0.00 0.00 58 1015.4
20260505033851 18 0.0 0.0 0.00 0.00 0.00 52 1014.8
20260505032853 17 0.0 0.0 0.00 0.00 0.00 54 1014.9
20260505031904 19 0.0 0.0 0.00 0.00 0.00 50 1014.5
20260505030853 18 0.0 0.0 0.00 0.00 0.00 54 1015.0
20260505025850 15 0.0 0.0 0.00 0.00 0.00 64 1016.4
20260505024853 17 0.0 0.0 0.00 0.00 0.00 57 1015.9
20260505023849 16 0.0 0.0 0.00 0.00 0.00 59 1016.1
20260505022908 18 0.0 0.0 0.00 0.00 0.00 52 1015.7
20260505021850 19 0.0 0.0 0.00 0.00 0.00 51 1015.5
20260505020849 18 0.0 0.0 0.00 0.00 0.00 53 1015.8
20260505015908 18 0.0 0.0 0.00 0.00 0.00 55 1015.9
20260505014850 15 0.0 0.0 0.00 0.00 0.00 61 1016.5
20260505013853 15 0.0 0.0 0.00 0.00 0.00 62 1016.5
20260505012849 17 0.0 0.0 0.00 0.00 0.00 58 1016.2
20260505011849 16 0.0 0.0 0.00 0.00 0.00 60 1016.5
20260505010920 16 0.0 0.0 0.00 0.00 0.00 58 1016.3
20260505005850 16 0.0 0.0 0.00 0.00 0.00 59 1016.4
20260505004854 18 0.0 0.0 0.00 0.00 0.00 53 1016.1
20260505003850 17 0.0 0.0 0.00 0.00 0.00 56 1016.5
20260505002904 18 0.0 0.0 0.00 0.00 0.00 52 1016.3
20260505001850 18 0.0 0.0 0.00 0.00 0.00 52 1016.4
20260505000921 17 0.0 0.0 0.00 0.00 0.00 56 1016.9
20260504235850 17 0.0 0.0 0.00 0.00 0.00 55 1017.1
20260504234909 18 0.0 0.0 0.00 0.00 0.00 54 1017.1
20260504233853 16 0.0 0.0 0.00 0.00 0.00 57 1017.6
20260504232850 17 0.0 0.0 0.00 0.00 0.00 55 1017.6
20260504231850 17 0.0 0.0 0.00 0.00 0.00 54 1017.8
20260504230850 18 0.0 0.0 0.00 0.00 0.00 51 1017.6
20260504225854 15 0.0 0.0 0.00 0.00 0.00 62 1018.8
20260504224854 16 0.0 0.0 0.00 0.00 0.00 58 1018.5
20260504223853 19 0.0 0.0 0.00 0.00 0.00 50 1017.9
20260504222850 16 0.0 0.0 0.00 0.00 0.00 57 1018.6
20260504221850 15 0.0 0.0 0.00 0.00 0.00 63 1019.3
20260504220853 16 0.0 0.0 0.00 0.00 0.00 59 1019.0
20260504215850 15 0.0 0.0 0.00 0.00 0.00 61 1019.2
20260504214851 14 0.0 0.0 0.00 0.00 0.00 66 1019.6
20260504213850 15 0.0 0.0 0.00 0.00 0.00 63 1019.4
20260504212906 15 0.0 0.0 0.00 0.00 0.00 64 1019.7
20260504211855 16 0.0 0.0 0.00 0.00 0.00 59 1019.4
20260504210853 21 0.0 0.0 0.00 0.00 0.00 44 1017.9
20260504205851 20 0.0 0.0 0.00 0.00 0.00 47 1018.4
20260504204850 19 0.0 0.0 0.00 0.00 0.00 49 1018.5
20260504203850 16 0.0 0.0 0.00 0.00 0.00 57 1019.3
20260504202851 18 0.0 0.0 0.00 0.00 0.00 50 1018.7
20260504201850 20 0.0 0.0 0.00 0.00 0.00 46 1018.3